EW0976 Weather Reports


time (UTC)temp
C
wind
direction
speed
KPH
gust
KPH
rain 1hr
cm
rain 24hr
cm
rain mn
cm
humidity
%
barometer
mb
20260503184105 17 195 6.4 14.5 0.00 0.00 0.00 39 988.7
20260503183105 17 237 4.8 8.0 0.00 0.00 0.00 39 988.4
20260503182104 16 177 4.8 12.9 0.00 0.00 0.00 40 989.0
20260503181604 16 216 3.2 9.7 0.00 0.00 0.00 40 989.0
20260503181104 16 234 4.8 8.0 0.00 0.00 0.00 38 989.0
20260503180105 16 175 9.7 14.5 0.00 0.00 0.00 38 989.2
20260503175605 16 179 6.4 16.1 0.00 0.00 0.00 38 988.8
20260503175105 16 196 6.4 19.3 0.00 0.00 0.00 40 989.0
20260503174605 16 183 8.0 19.3 0.00 0.00 0.00 37 989.1
20260503174105 16 239 8.0 14.5 0.00 0.00 0.00 40 989.2
20260503173105 16 189 8.0 16.1 0.00 0.00 0.00 39 989.3
20260503172605 16 191 9.7 19.3 0.00 0.00 0.00 40 989.3
20260503172105 16 192 8.0 12.9 0.00 0.00 0.00 38 989.4
20260503171604 16 182 4.8 14.5 0.00 0.00 0.00 40 989.4
20260503170604 16 188 11.3 16.1 0.00 0.00 0.00 39 989.8
20260503170104 16 198 9.7 20.9 0.00 0.00 0.00 38 989.8
20260503150604 14 198 4.8 14.5 0.00 0.00 0.00 44 990.9
20260503150104 13 198 3.2 9.7 0.00 0.00 0.00 46 990.9
20260503140104 10 230 6.4 12.9 0.00 0.00 0.00 58 991.1
20260503131104 6 209 3.2 8.0 0.00 0.00 0.00 71 991.5
20260503130604 6 177 3.2 8.0 0.00 0.00 0.00 74 991.5
20260503130104 6 185 4.8 8.0 0.00 0.00 0.00 77 991.5
20260503120105 2 156 1.6 4.8 0.00 0.00 0.00 83 991.5
20260503110605 0 237 0.0 0.0 0.00 0.00 0.00 98 991.2
20260503110104 0 237 0.0 0.0 0.00 0.00 0.00 99 991.2
20260503100104 0 339 0.0 0.0 0.00 0.00 0.00 98 990.7
20260503090104 0 290 0.0 1.6 0.00 0.00 0.00 98 990.7
20260503081604 0 270 0.0 0.0 0.00 0.00 0.00 97 990.8
20260503081104 0 270 0.0 0.0 0.00 0.00 0.00 97 990.8
20260503080104 0 270 0.0 0.0 0.00 0.00 0.00 97 990.7
20260503072104 0 270 0.0 0.0 0.00 0.00 0.00 97 990.7
20260503071604 0 270 0.0 0.0 0.00 0.00 0.00 97 990.7
20260503071104 0 270 0.0 0.0 0.00 0.00 0.00 96 990.8
20260503070604 0 270 0.0 0.0 0.00 0.00 0.00 97 990.7
20260503060104 0 270 0.0 0.0 0.00 0.00 0.00 95 991.1
20260503055104 0 270 0.0 0.0 0.00 0.00 0.00 94 991.1
20260503054604 0 270 0.0 0.0 0.00 0.00 0.00 94 991.2
20260503054104 0 270 0.0 0.0 0.00 0.00 0.00 94 991.2
20260503053103 1 270 0.0 0.0 0.00 0.00 0.00 93 991.2
20260503052103 1 270 0.0 1.6 0.00 0.00 0.00 93 991.1
20260503051603 1 31 0.0 0.0 0.00 0.00 0.00 92 991.1
20260503051103 1 31 0.0 0.0 0.00 0.00 0.00 92 991.0
20260503050604 1 31 0.0 0.0 0.00 0.00 0.00 92 991.1
20260503050104 1 31 0.0 1.6 0.00 0.00 0.00 92 991.1
20260503045119 1 249 0.0 0.0 0.00 0.00 0.00 92 991.1
20260503044118 1 249 0.0 0.0 0.00 0.00 0.00 91 991.1
20260503043618 1 252 0.0 0.0 0.00 0.00 0.00 91 991.1
20260503042619 1 279 0.0 0.0 0.00 0.00 0.00 91 991.1
20260503042118 1 279 0.0 0.0 0.00 0.00 0.00 90 991.1
20260503041619 1 279 0.0 0.0 0.00 0.00 0.00 90 991.1
20260503041118 1 279 0.0 0.0 0.00 0.00 0.00 91 991.1
20260503040619 1 279 0.0 0.0 0.00 0.00 0.00 91 991.1
20260503040119 1 279 0.0 0.0 0.00 0.00 0.00 90 991.1
20260503035619 2 279 0.0 0.0 0.00 0.00 0.00 90 991.2
20260503034619 2 279 0.0 0.0 0.00 0.00 0.00 89 991.3
20260503034118 2 279 0.0 0.0 0.00 0.00 0.00 89 991.3
20260503033618 2 279 0.0 0.0 0.00 0.00 0.00 89 991.2
20260503033118 2 279 0.0 0.0 0.00 0.00 0.00 89 991.2
20260503032618 2 279 0.0 0.0 0.00 0.00 0.00 88 991.3
20260503032118 2 279 0.0 0.0 0.00 0.00 0.00 88 991.3
20260503031618 2 295 0.0 0.0 0.00 0.00 0.00 88 991.3
20260503030618 2 295 0.0 0.0 0.00 0.00 0.00 87 991.3
20260503030119 2 295 0.0 0.0 0.00 0.00 0.00 86 991.3
20260503025619 3 295 0.0 0.0 0.00 0.00 0.00 85 991.3
20260503024619 3 261 0.0 0.0 0.00 0.00 0.00 80 991.2
20260503024118 3 261 0.0 0.0 0.00 0.00 0.00 81 991.2
20260503023618 3 261 0.0 0.0 0.00 0.00 0.00 81 991.2
20260503023118 3 224 0.0 0.0 0.00 0.00 0.00 79 991.2
20260503022618 3 224 0.0 0.0 0.00 0.00 0.00 79 991.2
20260503022118 3 224 0.0 1.6 0.00 0.00 0.00 78 991.2
20260503021618 4 250 0.0 1.6 0.00 0.00 0.00 78 991.2
20260503020618 4 314 0.0 0.0 0.00 0.00 0.00 77 991.0
20260503020118 5 313 0.0 1.6 0.00 0.00 0.00 78 991.0
20260503015618 5 269 0.0 0.0 0.00 0.00 0.00 75 991.0
20260503015118 5 268 0.0 0.0 0.00 0.00 0.00 71 990.9
20260503014618 6 268 0.0 0.0 0.00 0.00 0.00 71 990.9
20260503014119 6 284 0.0 1.6 0.00 0.00 0.00 68 990.8
20260503013618 6 256 0.0 1.6 0.00 0.00 0.00 66 990.8
20260503013118 6 277 0.0 1.6 0.00 0.00 0.00 60 990.7
20260503012619 6 231 0.0 1.6 0.00 0.00 0.00 61 990.7
20260503012118 6 204 0.0 0.0 0.00 0.00 0.00 61 990.6
20260503011618 6 204 0.0 1.6 0.00 0.00 0.00 64 990.6
20260503010618 7 324 0.0 3.2 0.00 0.00 0.00 63 990.5
20260503010118 7 282 0.0 0.0 0.00 0.00 0.00 58 990.5
20260503005618 7 343 0.0 1.6 0.00 0.00 0.00 57 990.4
20260503005118 7 344 0.0 1.6 0.00 0.00 0.00 58 990.4
20260503004618 8 29 0.0 0.0 0.00 0.00 0.00 56 990.3
20260503004118 8 29 0.0 1.6 0.00 0.00 0.00 55 990.3
20260503003618 8 196 0.0 3.2 0.00 0.00 0.00 54 990.3
20260503003118 8 294 1.6 3.2 0.00 0.00 0.00 52 990.2
20260503002619 8 29 1.6 3.2 0.00 0.00 0.00 51 990.2
20260503002117 9 355 1.6 8.0 0.00 0.00 0.00 50 990.1
20260503001618 9 15 0.0 4.8 0.00 0.00 0.00 50 990.1
20260503001118 9 352 1.6 4.8 0.00 0.00 0.00 49 990.0
20260503000618 9 25 1.6 4.8 0.00 0.00 0.00 49 990.0
20260503000118 10 32 3.2 9.7 0.00 0.00 0.00 48 990.0
20260502235618 10 191 1.6 8.0 0.00 0.00 0.00 48 989.9
20260502235118 10 81 0.0 4.8 0.00 0.00 0.00 49 989.9
20260502234618 10 52 1.6 8.0 0.00 0.00 0.00 47 989.8
20260502234118 10 22 3.2 8.0 0.00 0.00 0.00 46 989.7
20260502233617 10 179 0.0 4.8 0.00 0.00 0.00 48 989.8
20260502233118 10 263 1.6 4.8 0.00 0.00 0.00 46 989.7
20260502232618 10 14 3.2 8.0 0.00 0.00 0.00 46 989.7
20260502231618 11 18 1.6 8.0 0.00 0.00 0.00 46 989.7
20260502231118 11 20 3.2 4.8 0.00 0.00 0.00 46 989.7
20260502230617 11 4 1.6 4.8 0.00 0.00 0.00 46 989.7
20260502230118 11 23 4.8 9.7 0.00 0.00 0.00 45 989.5
20260502225618 11 305 4.8 9.7 0.00 0.00 0.00 45 989.5
20260502225118 12 291 1.6 4.8 0.00 0.00 0.00 47 989.6
20260502224617 12 41 3.2 4.8 0.00 0.00 0.00 44 989.5
20260502224118 12 3 4.8 11.3 0.00 0.00 0.00 43 989.4
20260502223618 12 311 1.6 11.3 0.00 0.00 0.00 45 989.1
20260502223118 12 269 4.8 8.0 0.00 0.00 0.00 44 989.1
20260502221618 11 24 4.8 11.3 0.00 0.00 0.00 43 989.2
20260502221118 11 10 4.8 12.9 0.00 0.00 0.00 43 989.3
20260502220617 12 24 3.2 9.7 0.00 0.00 0.00 45 989.3
20260502220118 12 306 1.6 8.0 0.00 0.00 0.00 46 989.2
20260502215618 12 1 3.2 8.0 0.00 0.00 0.00 45 989.3
20260502215118 12 11 3.2 11.3 0.00 0.00 0.00 44 989.2
20260502214617 12 312 4.8 11.3 0.00 0.00 0.00 44 988.9
20260502213618 12 236 3.2 8.0 0.00 0.00 0.00 47 989.2
20260502212618 11 21 1.6 8.0 0.00 0.00 0.00 43 988.9
20260502211617 12 315 3.2 11.3 0.00 0.00 0.00 44 989.2
20260502211117 12 354 1.6 9.7 0.00 0.00 0.00 45 988.9
20260502205618 12 17 3.2 11.3 0.00 0.00 0.00 43 988.9
20260502205118 12 16 3.2 9.7 0.00 0.00 0.00 44 988.7
20260502204618 12 8 1.6 11.3 0.00 0.00 0.00 42 988.9
20260502204118 12 19 3.2 11.3 0.00 0.00 0.00 42 988.6
20260502203618 11 88 3.2 8.0 0.00 0.00 0.00 41 988.8
20260502203118 11 259 3.2 8.0 0.00 0.00 0.00 44 989.3
20260502202618 12 346 6.4 12.9 0.00 0.00 0.00 42 989.3
20260502202117 11 232 3.2 9.7 0.00 0.00 0.00 44 988.6
20260502201618 11 22 6.4 12.9 0.00 0.00 0.00 42 989.3
20260502200617 11 295 4.8 11.3 0.00 0.00 0.00 44 989.2
20260502200117 11 21 4.8 9.7 0.00 0.00 0.00 43 989.4
20260502195119 13 21 8.0 14.5 0.00 0.00 0.00 41 989.5
20260502194618 13 354 3.2 11.3 0.00 0.00 0.00 43 988.7
20260502194118 12 68 3.2 11.3 0.00 0.00 0.00 42 988.8
20260502193618 12 26 3.2 9.7 0.00 0.00 0.00 45 988.9
20260502193118 12 15 4.8 9.7 0.00 0.00 0.00 44 989.0
20260502192618 11 8 4.8 12.9 0.00 0.00 0.00 42 989.1
20260502192117 12 11 4.8 14.5 0.00 0.00 0.00 42 989.1
20260502191618 12 13 4.8 9.7 0.00 0.00 0.00 42 989.6
20260502190617 12 18 4.8 11.3 0.00 0.00 0.00 40 989.0
20260502190118 12 327 3.2 8.0 0.00 0.00 0.00 42 989.7
20260502185117 13 279 3.2 12.9 0.00 0.00 0.00 42 989.4